Weather Roundup
Issued by NWS

Home | Current Version | Previous Version | Graphics & Text | Print | Product List | Glossary Off
Versions: 1 2 3 4 5 6 7 8 9 10 11 12 13 14 15 16 17 18 19 20 21 22 23 24 25 26 27 28 29 30 31 32 33 34 35 36 37 38 39 40 41 42 43 44 45 46 47 48 49 50

002
NZUS93 KARX 102210
HRRWXR

CURRENT HOURLY OBSERVATIONS ACROSS
MUCH OF THE UPPER MISSISSIPPI VALLEY
NATIONAL WEATHER SERVICE LA CROSSE WI
400 PM CST WED FEB 10 2016


...SOUTHEAST MINNESOTA...


CITY           SKY/WX    TMP DP  RH WIND       PRES   REMARKS
ROCHESTER      CLOUDY     9  -1  64 N8        30.05R WCI  -3
ROCHESTER/MAYO CLOUDY    11  -1  58 NE7       30.07R WCI   0
WINONA         MOSUNNY   14   0  52 N5        30.13R WCI   6
AUSTIN         MOSUNNY   10   0  61 N5        30.07R WCI   2
ALBERT LEA     PTSUNNY   12   1  62 NE5       30.06R WCI   4
DODGE CENTER   CLOUDY    10  -2  56 N8        30.06R WCI  -1
PRESTON        CLOUDY     8  -3  60 N7        30.06R WCI  -4
OWATONNA       SUNNY     12  -2  52 NE9       30.08R WCI   0
FARIBAULT        N/A     12   0  57 NE5       30.10R WCI   4
$$

...ELSEWHERE IN MINNESOTA...


CITY           SKY/WX    TMP DP  RH WIND       PRES   REMARKS
MINNEAPOLIS    PTSUNNY   13  -4  46 NE8       30.12R WCI   2
INTNL FALLS    SUNNY      2 -11  54 CALM      30.18R
DULUTH         SUNNY     10 -10  40 N8        30.07R WCI  -2
RED WING       CLOUDY     9  -6  52 N6        30.14R WCI  -1
REDWOOD FALLS  CLOUDY    14   2  58 E7        30.11R WCI   4
MANKATO        CLOUDY    12   1  62 NE8       30.10R WCI   1
WORTHINGTON    CLOUDY    10   5  79 E13       30.03R WCI  -5
FAIRMONT       CLOUDY    10   3  72 NE8       30.06R WCI  -1
$$

...SOUTHWEST WISCONSIN...


CITY           SKY/WX    TMP DP  RH WIND       PRES   REMARKS
LA CROSSE      SUNNY     10  -3  55 NW10      30.11R WCI  -4
PRAIRIE DU CHI MOSUNNY   15  -3  45 NW6       30.09R WCI   7
BOSCOBEL       MOSUNNY   14  -3  47 N8        30.09R WCI   3
LONE ROCK      NOT AVBL
PLATTEVILLE    MOSUNNY   15   2  57 NW3       30.04R
FORT MC COY    SUNNY     14  -1  52 NW6       30.08R WCI   5
CAMP DOUGLAS   PTSUNNY   12  -2  52 N8        30.06R WCI   1
VIROQUA        FAIR      10  -2  59 NW3       30.03R
WIS DELLS      SUNNY     14  -3  47 NW8       30.04R WCI   3
$$

...ELSEWHERE IN WISCONSIN...


CITY           SKY/WX    TMP DP  RH WIND       PRES   REMARKS
MILWAUKEE      PTSUNNY   13  -3  49 NW12      30.04R WCI  -1
MADISON        MOSUNNY   14  -2  49 VRB7      30.04R WCI   4
GREEN BAY      SUNNY     14  -5  42 NW9       30.03R WCI   2
EAU CLAIRE     CLOUDY    10  -4  53 VRB5      30.10R WCI   2
BLACK RVR FLS  FAIR      13  -4  46 NW8       30.08R WCI   2
MEDFORD        MOSUNNY   10  -3  54 N8        30.01R WCI  -2
WAUSAU         SUNNY     14  -4  44 N8        30.01R WCI   3
WIS RAPIDS     SUNNY     10  -4  53 NW12      30.07R WCI  -5
MARSHFIELD     SUNNY     11  -4  51 NW13      30.02R WCI  -4
RICE LAKE      MOSUNNY   10  -2  57 W6        30.11R WCI   0
$$

...NORTHEAST IOWA...


CITY           SKY/WX    TMP DP  RH WIND       PRES   REMARKS
WATERLOO       PTSUNNY   14  -1  51 N7        30.08R WCI   4
DUBUQUE        SUNNY     14   0  53 NW6       30.04R WCI   5
DECORAH        CLOUDY    10  -2  56 NW9       30.05R WCI  -2
MASON CITY     MOSUNNY   11   2  67 NE7       30.07S WCI   0
CHARLES CITY   CLOUDY    12  -2  52 N6        30.08R WCI   3
OELWEIN        PTSUNNY   12  -2  52 N7        30.07R WCI   2
$$

...ELSEWHERE IN IOWA...


CITY           SKY/WX    TMP DP  RH WIND       PRES   REMARKS
DES MOINES     CLOUDY    19  12  74 E9        30.06R WCI   8
IOWA CITY      CLOUDY    19   2  47 NW7       30.10R WCI  10
FORT DODGE     CLOUDY    14   7  73 E13       30.05R WCI   0
MARSHALLTOWN   CLOUDY    13   6  74 NE8       30.07R WCI   2
CEDAR RAPIDS   CLOUDY    16   4  59 N8        30.07R WCI   5
$$

...NORTHERN ILLINOIS...


CITY           SKY/WX    TMP DP  RH WIND       PRES   REMARKS
CHICAGO-OHARE  MOSUNNY   17   2  51 NW13      30.03R WCI   4
CHICAGO-MIDWAY PTSUNNY   18   1  47 NW12      30.04R WCI   5
MOLINE         CLOUDY    19   2  47 NW8       30.08R WCI   9
ROCKFORD       PTSUNNY   17   1  49 NW8       30.07R WCI   7
PEORIA         CLOUDY    19   1  45 NW9       30.09R WCI   8
$$

NOTE: "FAIR" INDICATES FEW OR NO CLOUDS BELOW 12,000 FEET WITH NO
SIGNIFICANT WEATHER AND/OR OBSTRUCTIONS TO VISIBILITY. WIND
SPEEDS ARE IN MILES-PER-HOUR.




USA.gov is the U.S. government's official web portal to all federal, state and local government web resources and services.